Time,TemperatureF,DewpointF,PressureIn,WindDirection,WindDirectionDegrees,WindSpeedMPH,WindSpeedGustMPH,Humidity,HourlyPrecipIn,Conditions,Clouds,dailyrainin,SoftwareType,DateUTC
2013-06-23 00:22:00,68.0,63.0,29.98,SSW,207,1.0,6.0,85,0.00,,,0.00,,2013-06-23 05:22:00,
2013-06-23 00:32:00,66.0,62.0,29.99,SSW,205,1.0,4.0,87,0.00,,,0.00,,2013-06-23 05:32:00,
2013-06-23 00:42:00,66.0,62.0,29.99,SSW,211,0.0,3.0,87,0.00,,,0.00,,2013-06-23 05:42:00,
2013-06-23 00:52:00,66.0,62.0,29.98,SSW,207,1.0,4.0,88,0.00,,,0.00,,2013-06-23 05:52:00,
2013-06-23 01:02:00,66.0,62.0,29.98,SSW,207,1.0,4.0,88,0.00,,,0.00,,2013-06-23 06:02:00,
2013-06-23 01:12:00,66.0,62.0,29.96,South,183,1.0,5.0,87,0.00,,,0.00,,2013-06-23 06:12:00,
2013-06-23 01:22:00,67.0,63.0,29.96,WSW,248,4.0,10.0,86,0.00,,,0.00,,2013-06-23 06:22:00,
2013-06-23 01:33:00,67.0,63.0,29.96,WSW,248,4.0,10.0,86,0.00,,,0.00,,2013-06-23 06:33:00,
2013-06-23 01:43:00,67.0,63.0,29.98,SW,215,1.0,6.0,86,0.00,,,0.00,,2013-06-23 06:43:00,
2013-06-23 01:52:00,67.0,63.0,29.98,SSW,213,0.0,4.0,86,0.00,,,0.00,,2013-06-23 06:52:00,
2013-06-23 02:02:00,67.0,63.0,29.98,SSW,213,0.0,4.0,86,0.00,,,0.00,,2013-06-23 07:02:00,
2013-06-23 02:12:00,67.0,63.0,29.97,South,189,0.0,4.0,87,0.00,,,0.00,,2013-06-23 07:12:00,
2013-06-23 02:22:00,67.0,63.0,29.98,South,186,0.0,3.0,87,0.00,,,0.00,,2013-06-23 07:22:00,
2013-06-23 02:34:00,67.0,63.0,29.98,South,186,0.0,3.0,87,0.00,,,0.00,,2013-06-23 07:34:00,
2013-06-23 02:43:00,67.0,63.0,29.98,SSW,200,0.0,3.0,87,0.00,,,0.00,,2013-06-23 07:43:00,
2013-06-23 02:53:00,67.0,63.0,29.98,SSW,206,0.0,3.0,87,0.00,,,0.00,,2013-06-23 07:53:00,
2013-06-23 03:02:00,67.0,63.0,29.98,SSW,206,0.0,3.0,87,0.00,,,0.00,,2013-06-23 08:02:00,
2013-06-23 03:12:00,67.0,63.0,29.98,SSW,206,0.0,2.0,87,0.00,,,0.00,,2013-06-23 08:12:00,
2013-06-23 03:22:00,67.0,63.0,29.98,South,169,0.0,5.0,88,0.00,,,0.00,,2013-06-23 08:22:00,
2013-06-23 03:34:00,67.0,63.0,29.98,South,169,0.0,5.0,88,0.00,,,0.00,,2013-06-23 08:34:00,
2013-06-23 03:43:00,66.0,62.0,29.98,SE,140,0.0,4.0,88,0.00,,,0.00,,2013-06-23 08:43:00,
2013-06-23 03:53:00,66.0,63.0,29.98,South,172,1.0,5.0,89,0.00,,,0.00,,2013-06-23 08:53:00,
2013-06-23 04:02:00,66.0,63.0,29.98,South,172,1.0,5.0,89,0.00,,,0.00,,2013-06-23 09:02:00,
2013-06-23 04:12:00,67.0,63.0,29.98,SSE,150,1.0,5.0,88,0.00,,,0.00,,2013-06-23 09:12:00,
2013-06-23 04:22:00,67.0,64.0,29.97,SE,138,2.0,5.0,89,0.00,,,0.00,,2013-06-23 09:22:00,
2013-06-23 04:34:00,67.0,64.0,29.97,SE,138,2.0,5.0,89,0.00,,,0.00,,2013-06-23 09:34:00,
2013-06-23 04:43:00,66.0,63.0,29.97,SE,139,3.0,5.0,89,0.00,,,0.00,,2013-06-23 09:43:00,
2013-06-23 04:53:00,66.0,63.0,29.97,South,188,1.0,3.0,89,0.00,,,0.00,,2013-06-23 09:53:00,
2013-06-23 05:02:00,66.0,63.0,29.97,South,188,1.0,3.0,89,0.00,,,0.00,,2013-06-23 10:02:00,
2013-06-23 05:11:00,67.0,63.0,29.97,SSW,197,1.0,4.0,88,0.00,,,0.00,,2013-06-23 10:11:00,
2013-06-23 05:22:00,67.0,63.0,29.98,SSW,197,0.0,2.0,88,0.00,,,0.00,,2013-06-23 10:22:00,
2013-06-23 05:34:00,67.0,63.0,29.98,SSW,197,0.0,2.0,88,0.00,,,0.00,,2013-06-23 10:34:00,
2013-06-23 05:43:00,67.0,63.0,29.98,SSW,198,0.0,0.0,87,0.00,,,0.00,,2013-06-23 10:43:00,
2013-06-23 05:53:00,67.0,63.0,30.00,SSE,167,2.0,6.0,87,0.00,,,0.00,,2013-06-23 10:53:00,
2013-06-23 06:01:00,67.0,63.0,30.00,SSE,167,2.0,6.0,87,0.00,,,0.00,,2013-06-23 11:01:00,
2013-06-23 06:11:00,68.0,64.0,30.01,South,179,1.0,4.0,86,0.00,,,0.00,,2013-06-23 11:11:00,
2013-06-23 06:22:00,68.0,64.0,30.01,SSW,205,0.0,3.0,86,0.00,,,0.00,,2013-06-23 11:22:00,
2013-06-23 06:33:00,68.0,64.0,30.01,SSW,205,0.0,3.0,86,0.00,,,0.00,,2013-06-23 11:33:00,
2013-06-23 06:43:00,68.0,64.0,30.01,SSE,158,1.0,5.0,86,0.00,,,0.00,,2013-06-23 11:43:00,
2013-06-23 06:53:00,68.0,64.0,30.01,SSW,207,3.0,6.0,86,0.00,,,0.00,,2013-06-23 11:53:00,
2013-06-23 07:01:00,68.0,64.0,30.01,SSW,207,3.0,6.0,86,0.00,,,0.00,,2013-06-23 12:01:00,
2013-06-23 07:12:00,68.0,64.0,30.00,SSW,202,5.0,8.0,87,0.00,,,0.00,,2013-06-23 12:12:00,
2013-06-23 07:22:00,68.0,64.0,29.99,SSW,207,5.0,9.0,86,0.00,,,0.00,,2013-06-23 12:22:00,
2013-06-23 07:33:00,68.0,64.0,29.99,SSW,207,5.0,9.0,86,0.00,,,0.00,,2013-06-23 12:33:00,
2013-06-23 07:42:00,68.0,64.0,29.99,South,169,5.0,9.0,86,0.00,,,0.00,,2013-06-23 12:42:00,
2013-06-23 07:53:00,69.0,64.0,29.99,SW,214,3.0,10.0,84,0.00,,,0.00,,2013-06-23 12:53:00,
2013-06-23 08:02:00,69.0,64.0,29.99,SW,214,3.0,10.0,84,0.00,,,0.00,,2013-06-23 13:02:00,
2013-06-23 08:11:00,69.0,64.0,29.98,South,180,4.0,10.0,83,0.00,,,0.00,,2013-06-23 13:11:00,
2013-06-23 08:23:00,70.0,64.0,29.98,South,181,5.0,8.0,82,0.00,,,0.00,,2013-06-23 13:23:00,
2013-06-23 08:34:00,70.0,64.0,29.98,South,181,5.0,8.0,82,0.00,,,0.00,,2013-06-23 13:34:00,
2013-06-23 08:43:00,70.0,64.0,29.98,SSW,196,3.0,10.0,82,0.00,,,0.00,,2013-06-23 13:43:00,
2013-06-23 08:53:00,70.0,64.0,29.98,SSW,211,2.0,8.0,82,0.00,,,0.00,,2013-06-23 13:53:00,
2013-06-23 09:04:00,70.0,64.0,29.98,SSW,211,2.0,8.0,82,0.00,,,0.00,,2013-06-23 14:04:00,
2013-06-23 09:11:00,72.0,65.0,29.97,South,171,4.0,9.0,80,0.00,,,0.00,,2013-06-23 14:11:00,
2013-06-23 09:22:00,74.0,66.0,29.97,SSW,211,5.0,10.0,76,0.00,,,0.00,,2013-06-23 14:22:00,
2013-06-23 09:34:00,74.0,66.0,29.97,SSW,211,5.0,10.0,76,0.00,,,0.00,,2013-06-23 14:34:00,
2013-06-23 09:44:00,75.0,65.0,29.97,South,169,8.0,14.0,72,0.00,,,0.00,,2013-06-23 14:44:00,
2013-06-23 09:52:00,76.0,65.0,29.98,SSE,158,7.0,13.0,70,0.00,,,0.00,,2013-06-23 14:52:00,
2013-06-23 10:05:00,76.0,65.0,29.98,SSE,158,7.0,13.0,70,0.00,,,0.00,,2013-06-23 15:05:00,
2013-06-23 10:11:00,77.0,67.0,29.98,SE,136,7.0,12.0,71,0.00,,,0.00,,2013-06-23 15:11:00,
2013-06-23 10:23:00,77.0,68.0,29.99,SSW,202,5.0,13.0,73,0.00,,,0.00,,2013-06-23 15:23:00,
2013-06-23 10:35:00,77.0,68.0,29.99,SSW,202,5.0,13.0,73,0.00,,,0.00,,2013-06-23 15:35:00,
2013-06-23 10:43:00,77.0,68.0,29.99,SSE,158,7.0,13.0,74,0.00,,,0.00,,2013-06-23 15:43:00,
2013-06-23 10:52:00,77.0,69.0,29.99,South,169,6.0,12.0,76,0.00,,,0.00,,2013-06-23 15:52:00,
2013-06-23 11:06:00,77.0,69.0,29.99,South,169,6.0,12.0,76,0.00,,,0.00,,2013-06-23 16:06:00,
2013-06-23 11:12:00,77.0,69.0,29.99,WSW,246,7.0,14.0,77,0.00,,,0.00,,2013-06-23 16:12:00,
2013-06-23 11:22:00,79.0,70.0,30.00,WSW,239,7.0,14.0,75,0.00,,,0.00,,2013-06-23 16:22:00,
2013-06-23 11:36:00,79.0,70.0,30.00,WSW,239,7.0,14.0,75,0.00,,,0.00,,2013-06-23 16:36:00,
2013-06-23 11:43:00,79.0,70.0,29.99,WSW,256,5.0,14.0,74,0.00,,,0.00,,2013-06-23 16:43:00,
2013-06-23 11:53:00,80.0,71.0,29.99,SW,218,7.0,16.0,73,0.00,,,0.00,,2013-06-23 16:53:00,
2013-06-23 12:04:00,80.0,71.0,29.99,SW,218,7.0,16.0,73,0.00,,,0.00,,2013-06-23 17:04:00,
2013-06-23 12:12:00,80.0,71.0,29.99,SW,217,9.0,19.0,73,0.00,,,0.00,,2013-06-23 17:12:00,
2013-06-23 12:22:00,81.0,70.0,29.99,SW,236,7.0,16.0,70,0.00,,,0.00,,2013-06-23 17:22:00,
2013-06-23 12:33:00,81.0,70.0,29.99,SW,236,7.0,16.0,70,0.00,,,0.00,,2013-06-23 17:33:00,
2013-06-23 12:43:00,81.0,70.0,29.99,South,190,6.0,15.0,70,0.00,,,0.00,,2013-06-23 17:43:00,
2013-06-23 12:53:00,80.0,71.0,29.99,WSW,244,7.0,13.0,73,0.00,,,0.00,,2013-06-23 17:53:00,
2013-06-23 13:01:00,80.0,71.0,29.99,WSW,244,7.0,13.0,73,0.00,,,0.00,,2013-06-23 18:01:00,
2013-06-23 13:12:00,81.0,72.0,29.98,SW,230,4.0,14.0,73,0.00,,,0.00,,2013-06-23 18:12:00,
2013-06-23 13:22:00,82.0,71.0,29.98,SSW,194,6.0,11.0,70,0.00,,,0.00,,2013-06-23 18:22:00,
2013-06-23 13:34:00,82.0,71.0,29.98,SSW,194,6.0,11.0,70,0.00,,,0.00,,2013-06-23 18:34:00,
2013-06-23 13:42:00,83.0,71.0,29.97,South,187,7.0,14.0,67,0.00,,,0.00,,2013-06-23 18:42:00,
2013-06-23 13:53:00,83.0,71.0,29.97,SSE,166,6.0,14.0,68,0.00,,,0.00,,2013-06-23 18:53:00,
2013-06-23 14:01:00,83.0,71.0,29.97,SSE,166,6.0,14.0,68,0.00,,,0.00,,2013-06-23 19:01:00,
2013-06-23 14:11:00,83.0,69.0,29.97,West,277,6.0,11.0,63,0.00,,,0.00,,2013-06-23 19:11:00,
2013-06-23 14:21:00,83.0,69.0,29.97,SSW,200,7.0,12.0,63,0.00,,,0.00,,2013-06-23 19:21:00,
2013-06-23 14:32:00,83.0,69.0,29.97,SSW,200,7.0,12.0,63,0.00,,,0.00,,2013-06-23 19:32:00,
2013-06-23 14:43:00,83.0,71.0,29.96,SSE,165,6.0,13.0,67,0.00,,,0.00,,2013-06-23 19:43:00,
2013-06-23 14:53:00,82.0,70.0,29.95,SSW,199,6.0,13.0,68,0.00,,,0.00,,2013-06-23 19:53:00,
2013-06-23 15:02:00,82.0,70.0,29.95,SSW,199,6.0,13.0,68,0.00,,,0.00,,2013-06-23 20:02:00,
2013-06-23 15:12:00,82.0,70.0,29.94,SSE,161,7.0,15.0,68,0.00,,,0.00,,2013-06-23 20:12:00,
2013-06-23 15:24:00,84.0,72.0,29.93,SSW,203,5.0,10.0,67,0.00,,,0.00,,2013-06-23 20:24:00,
2013-06-23 15:33:00,84.0,72.0,29.93,SSW,203,5.0,10.0,67,0.00,,,0.00,,2013-06-23 20:33:00,
2013-06-23 15:42:00,83.0,71.0,29.94,SSW,200,5.0,11.0,68,0.00,,,0.00,,2013-06-23 20:42:00,
2013-06-23 15:53:00,83.0,72.0,29.94,SSW,206,7.0,16.0,69,0.00,,,0.00,,2013-06-23 20:53:00,
2013-06-23 16:01:00,83.0,72.0,29.94,SSW,206,7.0,16.0,69,0.00,,,0.00,,2013-06-23 21:01:00,
2013-06-23 16:11:00,82.0,71.0,29.92,South,181,5.0,15.0,69,0.00,,,0.00,,2013-06-23 21:11:00,
2013-06-23 16:22:00,82.0,71.0,29.92,SSW,197,6.0,15.0,70,0.00,,,0.00,,2013-06-23 21:22:00,
2013-06-23 16:34:00,82.0,71.0,29.92,SSW,197,6.0,15.0,70,0.00,,,0.00,,2013-06-23 21:34:00,
2013-06-23 16:44:00,79.0,69.0,29.92,SSW,205,7.0,16.0,72,0.00,,,0.00,,2013-06-23 21:44:00,
2013-06-23 16:52:00,79.0,70.0,29.94,WSW,243,4.0,13.0,74,0.00,,,0.00,,2013-06-23 21:52:00,
2013-06-23 17:01:00,79.0,70.0,29.94,WSW,243,4.0,13.0,74,0.00,,,0.00,,2013-06-23 22:01:00,
2013-06-23 17:11:00,78.0,69.0,29.95,WSW,257,3.0,11.0,75,0.00,,,0.00,,2013-06-23 22:11:00,
2013-06-23 17:22:00,77.0,69.0,29.95,WSW,250,4.0,9.0,76,0.00,,,0.00,,2013-06-23 22:22:00,
2013-06-23 17:32:00,77.0,69.0,29.95,WSW,250,4.0,9.0,76,0.00,,,0.00,,2013-06-23 22:32:00,
2013-06-23 17:43:00,77.0,69.0,29.94,SW,217,6.0,10.0,77,0.00,,,0.00,,2013-06-23 22:43:00,
2013-06-23 17:53:00,76.0,69.0,29.93,SSW,202,5.0,11.0,78,0.00,,,0.00,,2013-06-23 22:53:00,
2013-06-23 18:01:00,76.0,69.0,29.93,SSW,202,5.0,11.0,78,0.00,,,0.00,,2013-06-23 23:01:00,
2013-06-23 18:11:00,76.0,68.0,29.92,SSW,199,6.0,13.0,77,0.00,,,0.00,,2013-06-23 23:11:00,
2013-06-23 18:22:00,76.0,68.0,29.92,SW,232,4.0,10.0,77,0.00,,,0.00,,2013-06-23 23:22:00,
2013-06-23 18:33:00,76.0,68.0,29.92,SW,232,4.0,10.0,77,0.00,,,0.00,,2013-06-23 23:33:00,
2013-06-23 18:44:00,76.0,69.0,29.92,SSW,194,4.0,10.0,78,0.00,,,0.00,,2013-06-23 23:44:00,
2013-06-23 18:52:00,76.0,69.0,29.91,SSW,204,4.0,11.0,78,0.00,,,0.00,,2013-06-23 23:52:00,
2013-06-23 19:01:00,76.0,69.0,29.91,SSW,204,4.0,11.0,78,0.00,,,0.00,,2013-06-24 00:01:00,
2013-06-23 19:11:00,76.0,69.0,29.90,SSE,148,4.0,9.0,79,0.00,,,0.00,,2013-06-24 00:11:00,
2013-06-23 19:22:00,76.0,69.0,29.90,SSW,197,3.0,9.0,79,0.00,,,0.00,,2013-06-24 00:22:00,
2013-06-23 19:33:00,76.0,69.0,29.90,SSW,197,3.0,9.0,79,0.00,,,0.00,,2013-06-24 00:33:00,
2013-06-23 19:42:00,76.0,69.0,29.90,South,176,2.0,8.0,79,0.00,,,0.00,,2013-06-24 00:42:00,
2013-06-23 19:52:00,76.0,70.0,29.90,SSE,153,2.0,5.0,81,0.00,,,0.00,,2013-06-24 00:52:00,
2013-06-23 20:02:00,76.0,70.0,29.90,SSE,153,2.0,5.0,81,0.00,,,0.00,,2013-06-24 01:02:00,
2013-06-23 20:11:00,76.0,70.0,29.90,South,182,4.0,7.0,81,0.00,,,0.00,,2013-06-24 01:11:00,
2013-06-23 20:22:00,76.0,70.0,29.90,SSE,151,4.0,11.0,82,0.00,,,0.00,,2013-06-24 01:22:00,
2013-06-23 20:32:00,76.0,70.0,29.90,SSE,151,4.0,11.0,82,0.00,,,0.00,,2013-06-24 01:32:00,
2013-06-23 20:42:00,75.0,69.0,29.92,SSW,192,4.0,11.0,82,0.00,,,0.00,,2013-06-24 01:42:00,
2013-06-23 20:53:00,75.0,69.0,29.92,SSW,207,4.0,7.0,83,0.00,,,0.00,,2013-06-24 01:53:00,
2013-06-23 21:02:00,75.0,69.0,29.92,SSW,207,4.0,7.0,83,0.00,,,0.00,,2013-06-24 02:02:00,
2013-06-23 21:11:00,75.0,70.0,29.93,South,188,3.0,7.0,84,0.00,,,0.00,,2013-06-24 02:11:00,
2013-06-23 21:22:00,75.0,70.0,29.93,SSW,194,1.0,4.0,84,0.00,,,0.00,,2013-06-24 02:22:00,
2013-06-23 21:33:00,75.0,70.0,29.93,SSW,194,1.0,4.0,84,0.00,,,0.00,,2013-06-24 02:33:00,
2013-06-23 21:42:00,74.0,69.0,29.95,SSW,192,1.0,6.0,85,0.00,,,0.00,,2013-06-24 02:42:00,
2013-06-23 21:53:00,74.0,69.0,29.96,South,182,3.0,6.0,84,0.00,,,0.00,,2013-06-24 02:53:00,
2013-06-23 22:01:00,74.0,69.0,29.96,South,182,3.0,6.0,84,0.00,,,0.00,,2013-06-24 03:01:00,
2013-06-23 22:11:00,74.0,69.0,29.97,SSW,192,2.0,7.0,84,0.00,,,0.00,,2013-06-24 03:11:00,
2013-06-23 22:22:00,74.0,69.0,29.97,SW,223,1.0,5.0,84,0.00,,,0.00,,2013-06-24 03:22:00,
2013-06-23 22:33:00,74.0,69.0,29.97,SW,223,1.0,5.0,84,0.00,,,0.00,,2013-06-24 03:33:00,
2013-06-23 22:43:00,74.0,69.0,29.97,WSW,247,2.0,5.0,85,0.00,,,0.00,,2013-06-24 03:43:00,
2013-06-23 22:53:00,73.0,69.0,29.96,West,279,0.0,2.0,87,0.00,,,0.00,,2013-06-24 03:53:00,
2013-06-23 23:02:00,73.0,69.0,29.96,West,279,0.0,2.0,87,0.00,,,0.00,,2013-06-24 04:02:00,
2013-06-23 23:12:00,72.0,68.0,29.97,WSW,246,1.0,3.0,87,0.00,,,0.00,,2013-06-24 04:12:00,
2013-06-23 23:22:00,72.0,68.0,29.97,WSW,246,1.0,3.0,87,0.00,,,0.00,,2013-06-24 04:22:00,
2013-06-23 23:33:00,72.0,67.0,29.96,WSW,246,0.0,2.0,85,0.00,,,0.00,,2013-06-24 04:33:00,
2013-06-23 23:43:00,71.0,66.0,29.96,WSW,241,0.0,3.0,85,0.00,,,0.00,,2013-06-24 04:43:00,
2013-06-23 23:52:00,71.0,66.0,29.96,WSW,241,0.0,3.0,85,0.00,,,0.00,,2013-06-24 04:52:00,